Location: Foligno
(42.9600°N, 12.7050°E)
Time: 16:24:26
(UTC+02:00)

ISS - Pass Details

Date: 21 May 2018
Orbit: 402 x 406 km, 51.6° (Epoch: 19 June)

Event Time Altitude Azimuth Distance (km) Brightness Sun altitude
Rises 02:17:07 0° 302° (WNW) 2,320 0.2 -24.8°
Reaches altitude 10° 02:19:35 10° 321° (NW) 1,459 -0.7 -24.7°
Maximum altitude 02:22:04 20° 10° (N) 1,007 -1.0 -24.5°
Drops below altitude 10° 02:24:34 10° 60° (ENE) 1,457 -0.4 -24.3°
Sets 02:27:01 0° 79° (ENE) 2,315 0.4 -24.2°
